Location: *
(49.5667°N, 1.3667°W)
Time: 12:03:39
(UTC+00:00)

Cosmos 2237 Rocket - Pass Details

Date: 20 September 2019
Orbit: 833 x 852 km, 71.0° (Epoch: 18 October)

Event Time Altitude Azimuth Distance (km) Brightness Sun altitude
Rises 19:10:33 0° 331° (NNW) 3,426 6.1 -10.7°
Reaches altitude 10° 19:13:01 10° 333° (NNW) 2,488 5.3 -11.1°
Maximum altitude 19:18:45 79° 61° (ENE) 874 2.2 -12.0°
Drops below altitude 10° 19:24:27 10° 148° (SSE) 2,475 4.2 -12.9°
Enters shadow 19:24:42 - 148° (SSE) 2,566 4.3 -13.0°
